Regional Weather Roundup
Issued by NWS

Home | Current Version | Previous Version | Text Only | Print | Product List | Glossary Off
Versions: 1 2 3 4 5 6 7 8 9 10 11 12 13 14 15 16 17 18 19 20 21 22 23 24 25 26 27 28 29 30 31 32 33 34 35 36 37 38 39 40 41 42 43 44 45 46 47 48 49 50

543
ASUS45 KBOU 271110
RWRCO

WEATHER ROUNDUP FOR COLORADO
NATIONAL WEATHER SERVICE DENVER/BOULDER CO
500 AM MDT SUN MAY 27 2018

NOTE: "FAIR" INDICATES FEW OR NO CLOUDS BELOW 12000 FEET WITH NO
SIGNIFICANT WEATHER AND/OR OBSTRUCTIONS TO VISIBILITY.

COZ001>005-013-030-031-271200-
...NORTHWEST COLORADO...

CITY           SKY/WX    TMP DP  RH WIND       PRES   REMARKS
CRAIG          FAIR      49  34  56 E5        29.93R
HAYDEN         FAIR      48  32  53 SE13      29.96R
MEEKER         FAIR      49  31  49 VRB5      29.93R
RANGELY        FAIR      65  15  14 SW10      29.84R
RABBIT EARS PA FAIR      45  23  42 CALM      30.21R
STEAMBOAT SPGS FAIR      46  33  60 SE3       29.98R
WALDEN         FAIR      39  25  56 SE3       30.09R
$$

COZ006>008-011-271200-
...WEST CENTRAL VALLEYS...

CITY           SKY/WX    TMP DP  RH WIND       PRES   REMARKS
GRAND JUNCTION FAIR      65  17  15 S12       29.87R
MONTROSE       FAIR      61  11  14 E8        29.97R
EAGLE          FAIR      47  22  37 SW6       29.98S
RIFLE          FAIR      61  24  24 SW5       29.90R
DELTA          FAIR      67  12  12 CALM      29.92S
NUCLA          FAIR      54  10  17 SE9       30.01S
$$

COZ017>023-064>068-271200-
...SOUTHWEST COLORADO...

CITY           SKY/WX    TMP DP  RH WIND       PRES   REMARKS
DURANGO        FAIR      39  17  41 NE3       30.03R
CORTEZ         FAIR      42  15  33 NE9       29.99S
PAGOSA SPRINGS FAIR      44  11  26 CALM      30.09S
TELLURIDE      FAIR      46   7  20 W6        30.14R
WOLF CREEK PAS FAIR      36  10  35 S17G23    30.33R
$$

COZ009-010-012-014-032>034-037-058>063-271200-
...CENTRAL COLORADO...

CITY           SKY/WX    TMP DP  RH WIND       PRES   REMARKS
ASPEN          FAIR      46  27  47 S7        30.00S
BUENA VISTA    FAIR      42  19  39 W9        30.07S
COPPER MTN     FAIR      46  16  29 SE6       30.31R
BERTHOUD PASS  FAIR      39  28  65 SE17      30.34F
COTTONWOOD PAS FAIR      55  19  24 CALM      30.18R
GUNNISON       FAIR      43  28  55 N5        30.06R
GRANBY         FAIR      39  27  62 NE7       30.09S
KREMMLING      FAIR      41  28  60 CALM      30.04S
LEADVILLE      FAIR      42  20  41 NW3       30.16R
MONARCH PASS   FAIR      39  14  35 MISG      30.39S
SALIDA         FAIR      53  21  28 W8        30.12R
SUNLIGHT       FAIR      39  14  35 S5        30.22S
WILKERSON PASS FAIR      46  16  29 SW10G20   30.30F
$$

COZ069>075-271200-
...SAN LUIS VALLEY/SANGRE DE CRISTO MOUNTAINS...

CITY           SKY/WX    TMP DP  RH WIND       PRES   REMARKS
ALAMOSA        FAIR      48  29  47 CALM      30.05F
DEL NORTE      FAIR      47  19  32 SW8       30.09R
LA VETA PASS   FAIR      50  23  34 S22G28    30.33R
SAGUACHE       NOT AVBL
$$

COZ035-036-038>040-271200-
...NORTHERN COLORADO FRONT RANGE...

CITY           SKY/WX    TMP DP  RH WIND       PRES   REMARKS
DENVER INTL AP MOCLDY    64  26  23 SW16      29.87R
AURORA         MOCLDY    65  23  20 S13       29.89R
FRONT RANGE AP FAIR      65  27  24 S17       29.89R
ERIE MUNI ARPT FAIR      53  40  61 CALM      29.90R
BOULDER MUN AP FAIR      61  37  41 CALM      29.86R
CENTENNIAL     MOCLDY    63  23  21 S9        29.90R
BROOMFIELD     FAIR      61  30  31 W7        29.88S
FORT COLLINS   FAIR      60  50  69 NE7       29.85R
LONGMONT       FAIR      57  40  52 CALM      29.86R
$$

COZ041-046-047-076>085-087-088-271200-
...PIKES PEAK/PALMER DIVIDE AND SOUTHERN FOOTHILLS...

CITY           SKY/WX    TMP DP  RH WIND       PRES   REMARKS
COLO. SPRINGS  MOCLDY    55  34  45 N9        29.96S
A. F. ACADEMY  FAIR      47  24  39 N9        29.97S
SCHRIEVER AFB  NOT AVBL
CHEYENNE MTN   MOCLDY    65  18  16 CALM      29.94F
ELLICOTT         N/A    N/A N/A N/A SE13      29.94R
FALCON         FAIR      52  33  48 N3        30.01S
FORT CARSON    FAIR      57  25  29 N7        29.92R
LIMON          FAIR      56  54  93 S5        29.92R
MONUMENT HILL  FAIR      50  28  43 S10       30.02R
CANON CITY     CLEAR     64  19  17 NW7       29.87F
WALSENBURG     FAIR      66  27  22 S14       29.95R
TRINIDAD       FAIR      65  26  23 W20G25    29.95R
$$

COZ042>045-048>051-090-091-271200-
...NORTHEAST COLORADO...

CITY           SKY/WX    TMP DP  RH WIND       PRES   REMARKS
GREELEY ARPT   FAIR      56  45  66 CALM      29.84R
AKRON          FAIR      69  58  67 S16G28    29.85R
BURLINGTON     FAIR      63  56  78 S15       29.90R
WRAY           FAIR      70  54  56 S25G33    29.83R
YUMA           FAIR      68  43  40 S22G29    29.83R
STERLING       FAIR      68  55  64 S10       29.80R
HOLYOKE        FAIR      73  59  60 S13       29.84R
FORT MORGAN    FAIR      66  51  57 S10       29.83R
$$

COZ086-089-092>099-271200-
...SOUTHEAST COLORADO...

CITY           SKY/WX    TMP DP  RH WIND       PRES   REMARKS
PUEBLO         FAIR      62  26  25 E7        29.85R
LA JUNTA       FAIR      74  57  55 S9G18     29.84R
LAMAR          FAIR      73  59  61 S14G24    29.83R
SPRINGFIELD      N/A     64  60  87 S3        29.92F
$$




USA.gov is the U.S. government's official web portal to all federal, state and local government web resources and services.